Location: San Martino di Castrozza
(46.2667°N, 11.8000°E)
Time: 02:36:18
(UTC+00:00)

BREEZE-M R/B - Pass Details

Date: 23 April 2021
Orbit: 311 x 4504 km, 49.7° (Epoch: 15 May)

Event Time Altitude Azimuth Distance (km) Brightness Sun altitude
Exits shadow 02:24:53 10° 289° (WNW) 2,104 5.5 -16.9°
Reaches altitude 10° 02:24:55 10° 289° (WNW) 2,096 5.5 -16.9°
Maximum altitude 02:29:36 72° 14° (NNE) 1,083 4.4 -16.3°
Drops below altitude 10° 02:40:02 10° 99° (E) 4,483 8.0 -14.8°
Sets 02:45:10 0° 102° (ESE) 6,223 8.8 -14.1°
